This is the latest recevied weather packets stored in our database for station/object VK6NP-1. If no packets are shown the sender has not sent any weather packets the latest 10 day(s).
| Time | Temp. | Humidity | Pressure | Rain* | Wind** | Luminosity | Snow |
|---|---|---|---|---|---|---|---|
| 1777963998 | 23.33° C | 48% | 1025 hPa | 0 mm | 0 m/s | - | - |
| 1777963698 | 23.33° C | 45% | 1025.1 hPa | 0 mm | 0 m/s | - | - |
| 1777963398 | 23.33° C | 44% | 1025.1 hPa | 0 mm | 0 m/s | - | - |
| 1777963095 | 23.33° C | 44% | 1025 hPa | 0 mm | 0 m/s | - | - |
| 1777962795 | 23.33° C | 44% | 1025 hPa | 0 mm | 0 m/s | - | - |
| 1777962495 | 23.33° C | 45% | 1025 hPa | 0 mm | 0 m/s | - | - |
| 1777962191 | 23.33° C | 45% | 1024.9 hPa | 0 mm | 0 m/s | - | - |
| 1777961892 | 23.89° C | 44% | 1025.1 hPa | 0 mm | 0 m/s | - | - |
| 1777961592 | 23.89° C | 44% | 1025 hPa | 0 mm | 0 m/s | - | - |
| 1777961289 | 23.89° C | 44% | 1025 hPa | 0 mm | 0 m/s | - | - |
| 1777960990 | 24.44° C | 42% | 1025.1 hPa | 0 mm | 0 m/s | - | - |
| 1777960690 | 24.44° C | 45% | 1025 hPa | 0 mm | 0 m/s | - | - |
| 1777960388 | 24.44° C | 45% | 1025.1 hPa | 0 mm | 0 m/s | - | - |
| 1777960087 | 25° C | 43% | 1025.1 hPa | 0 mm | 0 m/s | - | - |
| 1777959788 | 25° C | 43% | 1025.2 hPa | 0 mm | 0 m/s | - | - |
| 1777959485 | 25° C | 45% | 1025.3 hPa | 0 mm | 0 m/s | - | - |
| 1777959185 | 25° C | 46% | 1025.3 hPa | 0 mm | 0 m/s | - | - |
| 1777958885 | 25° C | 46% | 1025.3 hPa | 0 mm | 0 m/s | - | - |
| 1777958582 | 24.44° C | 46% | 1025.4 hPa | 0 mm | 0 m/s | - | - |
| 1777958282 | 24.44° C | 46% | 1025.5 hPa | 0 mm | 0 m/s | - | - |
| 1777957982 | 24.44° C | 46% | 1025.6 hPa | 0 mm | 0 m/s | - | - |
| 1777957678 | 24.44° C | 47% | 1025.7 hPa | 0 mm | 0 m/s | - | - |
| 1777957379 | 23.89° C | 47% | 1025.8 hPa | 0 mm | 0 m/s | - | - |
| 1777957079 | 23.89° C | 48% | 1025.9 hPa | 0 mm | 0 m/s | - | - |
| 1777956776 | 23.33° C | 47% | 1026 hPa | 0 mm | 0 m/s | - | - |
* Rain latest hour (hover to see other rain measurements)
** Current wind speed in m/s (hover to see current wind gust speed)